This demonstration page uses our WeatherBlox Daily Observations layout. Learn more.

Left ArrowRight Arrow

Hourly Observations for February 11, 2016

Temp ( °F °C ) Dew Point ( °F °C ) Humidity (%) Winds ( mph kmh ) Pressure ( in mb ) Visibility ( mi km ) Precip ( " mm )
12:15 am 00:15 Clear 30 -1.2 27 -2.6 90 90 NNE 9 15 30.24 1024 10 16 N/A
12:35 am 00:35 Clear 30 -1.3 27 -2.9 89 89 NNE 7 11 30.24 1024 10 16 N/A
12:55 am 00:55 Clear 28 -2 26 -3.5 90 90 NNE 7 11 30.24 1024 10 16 N/A
1:15 am 01:15 Clear 27 -2.9 25 -4 92 92 NNE 5 7 30.27 1025 10 16 N/A
1:35 am 01:35 Clear 26 -3.1 25 -4.1 93 93 N 3 6 30.27 1025 10 16 N/A
1:55 am 01:55 Partly Cloudy 26 -3.1 25 -4.1 93 93 NNE 7 11 30.30 1026 10 16 N/A
2:15 am 02:15 Mostly Cloudy 28 -2.5 26 -3.5 93 93 NNE 8 13 30.24 1024 10 16 N/A
2:35 am 02:35 Cloudy 27 -2.7 25 -3.7 93 93 N 5 7 30.30 1026 10 16 N/A
2:55 am 02:55 Cloudy 28 -2.4 26 -3.6 92 92 NNE 5 7 30.27 1025 10 16 N/A
3:15 am 03:15 Cloudy 28 -2.1 26 -3.4 91 91 NNE 10 17 30.27 1025 10 16 N/A
3:35 am 03:35 Cloudy 28 -2 26 -3.3 91 91 NNE 6 9 30.27 1025 10 16 N/A
3:55 am 03:55 Cloudy 29 -1.8 26 -3.2 90 90 NNE 10 17 30.27 1025 10 16 N/A
4:15 am 04:15 Cloudy 29 -1.8 26 -3.3 90 90 NNE 12 19 30.27 1025 10 16 N/A
4:35 am 04:35 Cloudy 29 -1.8 26 -3.2 90 90 NNE 12 19 30.24 1024 10 16 N/A
4:55 am 04:55 Cloudy 29 -1.7 26 -3.1 90 90 NNE 9 15 30.24 1024 10 16 N/A
5:15 am 05:15 Cloudy 29 -1.8 26 -3.2 90 90 NNE 10 17 30.27 1025 10 16 N/A
5:35 am 05:35 Cloudy 29 -1.8 26 -3.2 90 90 NNE 9 15 30.27 1025 10 16 N/A
5:55 am 05:55 Cloudy 29 -1.8 26 -3.2 90 90 N 5 7 30.27 1025 10 16 N/A
6:15 am 06:15 Cloudy 29 -1.8 26 -3.2 90 90 N N/A 30.27 1025 10 16 N/A
6:35 am 06:35 Cloudy 29 -1.9 26 -3.2 91 91 NE 3 6 30.27 1025 10 16 N/A
6:55 am 06:55 Cloudy 28 -2 26 -3.2 92 92 N N/A 30.27 1025 10 16 N/A
7:15 am 07:15 Cloudy 28 -2 26 -3.3 91 91 N N/A 30.27 1025 10 16 N/A
7:35 am 07:35 Cloudy 28 -2 26 -3.2 92 92 N N/A 30.27 1025 10 16 N/A
7:55 am 07:55 Cloudy 28 -2 26 -3.1 92 92 S 3 6 30.33 1027 10 16 N/A
8:15 am 08:15 Cloudy 28 -2.1 26 -3.3 92 92 N N/A 30.33 1027 10 16 N/A
8:35 am 08:35 Cloudy 28 -2 26 -3.2 92 92 SE 6 9 30.27 1025 7 11 N/A
8:55 am 08:55 Cloudy 28 -2.1 26 -3.2 92 92 SSE 6 9 30.27 1025 7 11 N/A
9:15 am 09:15 Cloudy 28 -2.1 26 -3.3 92 92 SSE 7 11 30.33 1027 7 11 N/A
9:35 am 09:35 Cloudy 28 -2.1 26 -3.2 92 92 S 8 13 30.27 1025 7 11 N/A
9:55 am 09:55 Cloudy with Mist and Fog 28 -2.2 26 -3.3 92 92 SSE 9 15 30.27 1025 5 8 N/A
10:15 am 10:15 Cloudy 28 -2 26 -3.1 92 92 S 8 13 30.33 1027 7 11 N/A
10:35 am 10:35 Cloudy 28 -2 26 -3.1 92 92 S 8 13 30.27 1025 7 11 N/A
10:55 am 10:55 Cloudy 29 -1.8 27 -2.9 92 92 S 9 15 30.27 1025 7 11 N/A
11:15 am 11:15 Cloudy 29 -1.5 27 -2.7 92 92 S 9 15 30.27 1025 7 11 N/A
11:35 am 11:35 Cloudy 30 -1.2 28 -2.5 91 91 S 13 20 30.24 1024 7 11 N/A
11:55 am 11:55 Cloudy 30 -1 28 -2.5 90 90 S 12 19 30.24 1024 7 11 N/A
12:15 pm 12:15 Cloudy 31 -0.6 28 -2.1 90 90 S 12 19 30.24 1024 10 16 N/A
12:35 pm 12:35 Cloudy 31 -0.8 28 -2.3 90 90 S 12 19 30.24 1024 7 11 N/A
12:55 pm 12:55 Cloudy 31 -0.7 28 -2.2 90 90 S 17 28 30.21 1023 10 16 N/A
1:15 pm 13:15 Cloudy 31 -0.5 28 -2.3 88 88 S 14 22 30.21 1023 10 16 N/A
1:35 pm 13:35 Cloudy 31 -0.5 28 -2.1 89 89 S 12 19 30.21 1023 10 16 N/A
1:55 pm 13:55 Cloudy 32 -0.1 28 -2 87 87 S 9 15 30.24 1024 10 16 N/A
2:15 pm 14:15 Cloudy 32 undefined 29 -1.8 88 88 S 8 13 30.21 1023 10 16 N/A
2:35 pm 14:35 Cloudy 33 0.4 29 -1.5 87 87 SSW 12 19 30.21 1023 10 16 N/A
2:55 pm 14:55 Cloudy 33 0.8 30 -1.3 86 86 SSW 12 19 30.15 1021 10 16 N/A
3:15 pm 15:15 Cloudy 34 1 30 -0.9 87 87 SW 9 15 30.15 1021 10 16 N/A
3:35 pm 15:35 Cloudy 34 1 30 -1 87 87 SW 8 13 30.18 1022 10 16 N/A
3:55 pm 15:55 Mostly Cloudy 34 1 30 -1 87 87 SW 10 17 30.18 1022 10 16 N/A
4:15 pm 16:15 Mostly Cloudy 34 1.1 31 -0.7 88 88 SW 8 13 30.18 1022 10 16 N/A
4:35 pm 16:35 Partly Cloudy 35 1.9 31 -0.6 84 84 SW 9 15 30.15 1021 10 16 N/A
4:55 pm 16:55 Sunny 36 2.2 31 -0.5 83 83 SW 8 13 30.15 1021 10 16 N/A
5:15 pm 17:15 Partly Cloudy 36 2.2 31 -0.5 83 83 SW 6 9 30.15 1021 10 16 N/A
5:35 pm 17:35 Sunny 36 2 31 -0.5 84 84 SW 7 11 30.18 1022 10 16 N/A
5:55 pm 17:55 Sunny 35 1.5 31 -0.6 86 86 SW 6 9 30.18 1022 10 16 N/A
6:15 pm 18:15 Clear 34 1 31 -0.7 89 89 SW 5 7 30.18 1022 10 16 N/A
6:35 pm 18:35 Clear 34 1 31 -0.7 89 89 SW 5 7 30.18 1022 10 16 N/A
6:55 pm 18:55 Clear 33 0.5 30 -1 90 90 SW 6 9 30.21 1023 10 16 N/A
7:15 pm 19:15 Clear 33 0.5 30 -1 90 90 SW 3 6 30.21 1023 10 16 N/A
7:35 pm 19:35 Clear 33 0.7 30 -0.9 89 89 SW 6 9 30.21 1023 10 16 N/A
7:55 pm 19:55 Clear 34 0.9 31 -0.7 89 89 WSW 6 9 30.21 1023 10 16 N/A
8:15 pm 20:15 Clear 35 1.9 31 -0.4 85 85 WSW 5 7 30.21 1023 10 16 N/A
8:35 pm 20:35 Partly Cloudy 35 1.7 31 -0.6 85 85 W 6 9 30.21 1023 10 16 N/A
8:55 pm 20:55 Partly Cloudy 35 1.5 31 -0.5 87 87 W 6 9 30.21 1023 10 16 N/A
9:15 pm 21:15 Partly Cloudy 35 1.5 31 -0.6 86 86 W 7 11 30.21 1023 10 16 N/A
9:35 pm 21:35 Partly Cloudy 35 1.5 31 -0.6 86 86 W 8 13 30.21 1023 10 16 N/A
9:55 pm 21:55 Partly Cloudy 34 0.9 30 -0.9 88 88 WNW 6 9 30.21 1023 10 16 N/A
10:15 pm 22:15 Partly Cloudy 33 0.3 29 -1.4 89 89 NNW 6 9 30.27 1025 10 16 N/A
10:35 pm 22:35 Clear 32 -0.1 28 -2 87 87 NW 6 9 30.27 1025 10 16 N/A
10:55 pm 22:55 Clear 32 -0.1 29 -1.9 88 88 NW 7 11 30.27 1025 10 16 N/A
11:15 pm 23:15 Clear 33 0.3 29 -1.6 87 87 NW 8 13 30.27 1025 10 16 N/A
11:35 pm 23:35 Clear 35 1.4 30 -0.9 85 85 NNW 12 19 30.30 1026 10 16 N/A
11:55 pm 23:55 Clear 37 3 31 -0.5 78 78 NNW 10 17 30.27 1025 10 16 N/A

Powered by AerisWeather